Theta_e
315 315 314 312 312 313 313 313 313 313 313 313 312 311 312 312 313 321 325 324 326 330 333 342 343 342 345 346 349 347 343 345 345 347 360 356 359 358 352 353 352 353 350 350 348
316 316 316 315 314 313 313 313 313 313 313 313 312 311 312 312 324 323 325 325 323 329 335 339 337 338 343 343 345 345 344 347 349 350 354 356 358 358 358 359 357 355 349 349 348
316 316 316 316 316 315 314 314 314 313 313 313 311 312 312 313 326 328 324 327 321 329 329 330 335 340 343 342 344 346 346 346 354 352 354 356 356 354 354 354 358 357 351 350 349
317 316 317 317 317 317 316 315 315 314 313 313 311 312 312 325 329 327 321 328 324 329 327 333 339 342 343 343 343 347 349 350 357 355 354 353 352 352 352 353 352 354 350 351 352
317 317 318 318 318 318 317 316 315 315 314 313 311 312 321 320 323 322 319 328 327 326 329 336 341 342 343 343 344 346 350 355 356 355 353 352 352 350 353 353 353 352 352 353 353
317 318 318 319 319 318 318 317 316 315 314 313 311 312 321 320 316 322 319 327 330 329 333 336 341 340 341 342 344 349 351 354 355 356 352 352 352 349 352 352 354 353 354 354 353
317 317 318 319 319 319 319 316 315 316 314 312 312 315 318 320 317 319 320 322 328 331 334 337 339 340 340 341 343 348 352 355 356 356 355 354 354 351 351 352 355 354 354 353 353
316 316 317 319 319 319 318 316 317 316 313 312 312 321 320 315 315 318 321 323 323 328 331 335 337 340 340 340 344 346 347 348 356 356 355 352 357 354 351 352 353 353 353 352 352
317 316 316 318 319 319 317 318 315 314 312 313 321 320 320 316 320 320 321 326 326 327 330 332 337 340 340 341 344 345 346 346 348 352 354 355 354 354 352 351 352 351 351 352 352
316 315 315 317 318 319 317 315 317 319 320 321 320 320 318 321 320 320 321 322 328 331 333 337 339 341 341 341 344 344 343 343 343 342 351 355 356 355 354 353 352 351 350 351 351
314 313 313 316 318 318 318 317 324 323 322 324 321 317 318 320 320 321 322 324 327 333 337 337 340 342 342 341 341 341 341 342 341 338 345 351 353 354 355 354 354 352 349 350 351
312 310 310 316 318 318 318 323 321 319 324 323 323 323 321 320 321 322 322 326 329 332 335 338 340 340 340 339 340 340 341 342 340 340 345 346 350 352 355 356 354 354 352 348 350
309 307 308 315 317 320 319 320 317 318 325 323 321 321 321 321 321 322 323 326 327 330 336 339 338 339 339 339 340 341 341 339 339 339 345 347 350 355 354 356 354 353 352 350 351
309 309 309 314 320 318 322 317 318 318 325 322 322 322 320 321 321 322 322 325 326 328 332 336 337 338 339 340 340 340 339 336 338 340 343 343 344 350 355 357 357 355 353 352 353
310 309 310 311 316 322 320 318 318 318 324 322 322 320 321 322 321 321 322 323 326 325 328 331 334 336 339 339 338 339 335 336 337 341 342 345 342 347 350 354 358 357 354 353 353
308 310 311 316 316 318 317 318 319 324 321 324 322 323 322 321 321 321 322 323 324 325 327 328 331 334 336 337 336 335 334 336 338 342 344 342 340 339 342 356 354 355 355 354 353
309 311 311 313 322 317 318 321 324 322 320 324 323 322 323 321 321 322 322 323 323 325 326 326 329 330 330 333 333 332 335 341 344 345 343 341 340 339 346 349 351 351 355 354 355
311 312 314 314 316 317 320 324 324 320 321 324 321 322 323 322 321 321 323 323 324 324 325 327 326 330 330 330 330 331 334 338 343 345 345 342 340 344 350 353 353 353 349 354 356
312 316 317 317 316 316 324 326 323 319 323 322 322 324 323 321 320 321 323 323 324 324 324 325 326 328 328 330 331 332 335 335 337 340 341 340 342 340 349 353 356 355 354 356 356
314 318 321 318 317 320 324 323 323 319 321 321 323 325 326 324 321 320 322 323 323 323 324 326 327 327 327 328 329 331 332 334 337 342 344 341 342 341 354 355 357 357 358 357 356
316 323 319 317 317 324 322 323 322 321 320 320 321 323 324 325 325 321 322 321 322 322 324 325 325 327 327 328 328 330 332 335 337 339 343 343 344 341 349 352 356 358 357 357 356
318 327 318 318 325 324 323 322 317 322 321 322 322 322 322 322 326 326 325 325 322 323 322 324 325 326 326 327 328 329 331 334 338 343 340 340 341 347 349 350 355 358 359 356 354
322 325 319 321 326 324 322 321 321 322 324 324 322 323 323 324 329 328 327 326 322 321 322 324 323 325 325 326 327 327 329 331 332 335 340 342 340 352 353 352 357 358 358 358 357
323 330 325 325 325 324 322 323 324 326 327 328 325 324 326 326 327 329 329 327 321 322 327 324 323 324 326 326 326 326 327 329 331 332 334 335 336 352 356 357 356 358 360 355 355
324 329 326 327 327 327 327 329 328 329 330 330 329 326 325 329 329 328 328 329 329 333 324 323 323 324 324 325 325 326 327 329 331 332 334 334 336 337 351 357 357 358 357 355 356
324 325 325 330 328 329 327 330 330 331 334 332 332 327 333 336 335 332 331 333 333 331 329 326 325 325 325 324 325 324 326 329 331 331 334 336 336 338 349 356 358 359 357 356 356
311 315 321 325 331 333 332 331 332 335 333 334 334 332 330 332 335 336 335 335 332 335 336 330 326 329 326 326 326 326 326 327 329 331 333 338 338 348 351 358 359 358 356 355 356
Wind_Speed
22 22 22 20 20 20 20 20 21 20 19 17 16 16 17 19 12 3 3 2 1 8 4 5 4 2 4 3 3 5 5 11 13 13 8 7 5 6 6 13 6 3 12 23 24
23 23 23 22 21 20 20 21 22 21 20 18 16 16 17 18 6 5 2 3 6 11 7 7 5 2 3 2 2 4 7 11 9 8 9 6 4 8 6 10 8 10 16 25 24
23 24 24 23 23 21 21 21 22 20 19 17 16 15 17 12 5 4 2 3 13 14 8 8 7 4 1 4 2 3 7 5 7 11 8 7 7 5 4 6 10 15 21 21 23
24 25 25 24 23 22 23 22 20 19 18 15 14 14 13 3 6 4 5 3 15 13 9 6 6 2 2 1 3 2 6 6 6 8 5 8 5 9 7 5 8 16 22 19 18
25 26 26 25 24 25 23 22 20 18 17 13 12 13 4 6 2 2 10 5 11 11 11 6 5 4 3 2 3 4 6 10 9 8 9 5 7 9 10 10 13 18 19 17 15
27 27 26 25 25 25 24 23 20 18 14 10 9 9 5 6 1 2 6 1 6 10 8 6 4 6 2 3 6 6 8 11 8 7 7 8 7 1 9 12 14 16 16 15 14
27 28 28 26 25 26 26 23 19 16 10 6 6 6 5 3 1 3 7 2 4 7 5 3 4 7 2 3 3 7 7 7 6 6 4 4 6 8 13 13 15 13 12 13 13
28 30 29 26 26 27 26 20 17 12 3 3 4 3 4 1 3 8 6 7 7 6 5 2 4 4 4 3 5 4 4 3 8 7 5 6 7 13 16 14 14 13 11 12 13
29 30 30 27 26 27 20 19 9 2 1 0 2 5 2 2 5 3 4 7 8 6 6 3 6 4 6 9 8 5 1 2 2 10 4 10 4 13 16 14 14 13 14 12 12
30 31 30 26 26 26 19 8 3 2 1 1 3 5 5 4 1 4 6 8 8 9 8 9 7 10 7 9 6 1 2 1 5 3 10 10 10 14 16 15 14 14 14 13 13
29 31 30 26 26 17 17 3 5 6 8 7 3 4 1 4 3 7 6 11 11 14 15 13 11 12 10 2 4 1 3 4 4 4 5 9 11 12 17 16 16 15 15 15 14
29 30 29 25 23 12 7 3 5 5 8 6 9 10 11 6 5 10 9 14 13 15 16 9 16 15 4 5 5 4 4 2 4 3 5 4 7 10 19 19 18 17 16 14 15
28 29 29 24 12 7 5 5 1 7 6 3 4 5 3 10 7 11 14 16 15 18 18 20 17 9 11 10 10 9 7 4 7 8 6 7 10 10 13 16 17 16 16 15 13
28 31 28 24 2 8 1 2 12 5 5 8 6 5 8 5 8 7 15 12 8 17 18 19 8 12 16 14 12 15 6 4 8 11 7 3 5 8 11 16 17 17 16 16 15
30 31 25 17 11 4 3 8 4 4 5 5 7 4 3 9 4 12 10 11 16 10 11 16 15 17 17 16 11 14 5 6 7 11 12 10 7 7 7 9 13 17 18 18 15
32 28 22 6 6 6 7 10 4 6 4 5 4 5 8 12 7 9 12 8 7 11 13 10 2 14 20 19 12 11 8 9 8 7 12 4 3 6 3 7 5 9 18 17 15
32 21 14 6 2 7 10 4 6 7 3 5 1 3 5 10 10 12 16 17 11 15 13 13 12 8 8 14 11 15 15 12 12 9 10 5 4 5 7 5 3 5 13 16 15
28 15 8 7 5 7 6 6 7 3 2 1 3 4 8 9 11 11 16 17 17 17 11 14 15 15 13 14 16 19 20 15 14 10 9 3 6 3 8 6 4 5 8 13 15
18 3 2 1 4 6 6 9 2 1 3 5 4 6 7 8 6 11 14 16 17 15 12 12 17 6 8 14 13 12 13 20 20 6 8 8 5 9 9 6 6 7 9 12 12
10 4 2 6 3 8 7 12 1 2 4 4 4 3 4 7 9 13 13 11 9 14 14 8 9 9 14 11 15 13 11 13 12 14 13 9 6 9 8 9 9 11 11 11 12
3 3 8 4 4 6 9 10 6 5 5 4 2 3 1 1 4 9 11 8 13 16 15 11 11 11 9 14 16 13 13 11 11 14 14 12 11 7 5 9 13 13 12 13 12
4 3 3 3 5 4 9 5 1 3 4 4 5 6 7 5 4 7 9 4 4 12 18 18 11 13 16 11 4 11 19 20 11 14 12 14 8 4 7 10 13 14 14 13 12
3 2 4 4 4 7 3 8 5 5 5 3 4 4 3 5 4 6 4 0 5 11 12 16 11 11 14 14 10 11 13 11 14 15 12 10 13 5 7 12 13 15 15 13 14
4 2 4 3 1 8 4 5 7 5 7 6 7 6 9 10 7 4 4 2 5 11 5 7 15 15 13 15 18 21 19 16 19 14 15 15 17 9 12 14 16 16 16 15 14
2 3 4 3 5 3 5 1 5 5 6 5 6 10 6 6 7 6 6 6 4 5 6 12 16 12 16 10 9 13 19 20 18 17 19 16 14 16 16 17 17 17 17 16 16
5 4 4 4 4 8 5 6 8 4 5 7 9 2 6 10 10 5 4 4 2 5 6 13 11 12 15 18 16 15 18 16 18 16 15 15 16 10 9 15 19 20 19 17 17
6 2 4 2 3 5 5 8 6 2 5 6 4 8 10 8 8 10 11 13 11 8 6 5 11 9 15 18 14 18 19 19 17 16 15 16 16 9 13 18 20 20 19 18 18
Wind_Direction
22 19 16 12 8 6 3 1 358 356 351 347 344 342 341 335 333 287 230 60 180 194 159 173 218 273 209 252 238 279 60 54 51 44 95 128 106 73 94 129 93 79 139 141 149
19 16 12 8 4 2 -0 357 354 353 349 345 341 341 338 335 313 226 253 251 194 173 196 239 343 175 212 193 196 302 45 50 27 56 95 123 76 119 134 123 131 114 112 140 152
15 12 8 5 2 357 354 350 349 348 346 341 338 340 336 334 254 105 299 237 195 187 248 278 292 272 283 220 130 51 33 57 51 66 95 102 112 125 152 146 157 152 147 156 159
9 6 4 0 356 354 350 347 346 343 342 338 338 341 333 297 198 109 -0 280 194 193 240 262 267 297 335 20 108 123 51 67 91 92 84 70 108 80 61 68 132 154 155 159 167
4 2 360 357 352 348 346 341 337 335 335 333 338 348 339 230 113 137 34 62 156 185 220 247 301 310 32 17 153 67 96 94 110 101 84 95 66 93 89 101 127 143 157 163 169
358 357 355 352 348 344 340 334 328 325 327 321 334 345 280 236 67 175 354 229 190 198 210 230 346 354 47 21 356 98 106 117 131 122 118 109 126 204 107 122 129 150 162 169 177
355 353 350 349 345 341 337 328 320 318 314 307 330 354 267 292 265 272 303 239 214 232 233 224 299 290 321 143 109 143 119 122 148 162 145 155 142 110 135 141 142 161 174 175 183
353 350 347 346 342 338 335 325 318 315 290 295 329 304 271 229 280 281 257 247 235 233 245 273 257 292 311 148 161 202 233 254 151 196 167 230 111 145 151 156 155 167 177 188 188
350 347 344 344 339 336 337 328 326 347 164 328 274 276 187 302 211 218 240 232 187 199 203 198 231 281 198 230 194 209 112 33 152 212 174 225 82 157 167 170 165 177 176 186 183
345 343 342 342 338 335 335 329 342 80 112 219 247 251 219 150 293 277 230 223 196 175 174 213 223 234 213 232 237 188 165 120 335 91 221 217 251 153 180 184 180 186 182 185 191
343 341 340 341 337 336 341 286 224 186 208 286 13 318 180 333 240 201 195 198 209 200 206 203 222 219 221 23 16 275 280 314 14 44 278 239 242 187 186 195 191 194 193 186 194
340 339 337 341 337 350 2 15 58 2 297 232 257 263 262 282 257 207 189 199 200 206 213 185 224 226 149 202 240 235 275 284 249 353 257 274 253 203 184 204 198 193 197 196 191
340 341 336 341 342 17 28 73 10 322 254 180 217 248 188 199 220 182 197 211 206 215 203 223 219 168 195 208 233 228 266 347 332 312 223 279 227 170 200 203 205 203 198 198 197
344 342 336 342 0 342 156 335 322 221 262 136 174 142 169 216 220 189 211 200 206 217 215 231 174 197 212 221 234 254 160 287 302 303 330 321 305 149 176 202 206 205 199 194 192
342 339 331 335 306 282 348 328 310 234 241 106 126 116 180 216 105 181 187 208 209 198 197 210 209 208 218 226 212 265 132 265 296 289 306 194 266 121 156 205 204 207 200 199 182
337 334 325 337 273 262 311 319 234 228 206 136 142 173 180 202 180 146 181 227 232 203 222 253 217 224 231 235 227 250 209 233 245 285 263 168 279 299 70 87 120 200 204 200 181
333 326 304 273 343 311 305 239 230 248 122 137 124 208 231 180 179 177 184 189 182 194 202 201 197 187 225 217 201 221 237 237 228 206 248 113 236 306 91 98 136 159 191 195 182
330 318 286 242 267 318 261 224 243 46 278 94 285 249 215 174 210 187 188 200 215 223 214 199 205 200 190 224 206 215 229 237 241 240 272 127 248 112 93 103 126 182 200 179 177
339 322 244 257 271 217 239 219 249 196 355 334 265 224 168 183 239 203 197 204 197 218 234 205 232 167 220 213 230 213 238 243 260 174 265 267 170 239 174 144 134 127 155 161 173
331 289 87 300 221 206 229 246 244 300 319 310 301 335 211 169 203 199 185 199 197 210 242 188 227 185 190 219 223 263 260 208 231 248 227 226 231 271 166 169 153 149 154 160 155
260 236 11 88 166 217 224 225 242 214 279 303 305 300 298 221 271 196 178 177 211 191 217 231 239 162 185 202 199 201 226 236 259 222 248 240 218 143 150 182 169 155 153 154 159
294 214 142 342 209 217 232 231 9 229 180 265 286 286 280 296 256 217 213 245 222 223 200 215 213 231 205 206 343 231 214 221 225 209 247 283 286 102 142 167 159 155 152 151 150
344 43 186 293 240 212 187 238 261 247 237 229 258 241 295 274 275 233 205 247 209 198 211 194 221 219 219 216 209 239 235 247 249 248 244 233 242 137 155 157 159 157 151 141 148
284 201 153 229 266 286 218 212 220 197 265 258 274 254 264 257 221 266 226 175 191 226 22 215 232 226 223 222 211 212 227 224 241 234 236 238 258 176 181 172 171 166 153 153 153
344 48 6 188 197 250 251 340 231 238 218 233 232 243 269 262 237 230 232 239 159 134 213 230 229 228 238 263 226 245 215 217 232 243 252 248 238 245 186 181 179 164 155 157 152
343 339 334 286 269 242 191 223 262 242 257 222 247 128 271 261 288 325 333 272 50 171 180 225 241 242 231 230 231 235 238 221 219 238 247 256 263 296 142 161 173 167 163 163 159
7 317 286 146 247 260 251 254 267 290 245 277 305 313 270 283 330 305 293 283 276 286 295 215 231 214 231 227 227 235 234 226 228 222 232 234 236 156 174 174 175 167 168 164 160